FALCON 9 DEB (48699 NORAD) Tracking and Keplerian Element Data

This shows tracking and keplerian element data for the satellite.

Feedback or suggestion? Click here.




ElementValue
Catalog48699
NameFALCON 9 DEB
Epoch Orbit369
Epoch Day169.74494007
Epoch Year2021
RAAN306.7902
Inclination53.0508
Eccentricity0.0016228
Argument of Perigee290.7836
Mean Anonmoly69.146
Mean Motion16.13751176
Decay Rate0.00481797
L11 48699U 21044BP 21169.74494007 .00481797 13693-3 37905-3 0 9999
L22 48699 53.0508 306.7902 0016228 290.7836 69.1460 16.13751176 3692

Live tracking and technical data element details for FALCON 9 DEB (NORAD 48699). FALCON 9 DEB can be tracked NOW for your location showing map with azimuth and elevation plus other details from your city location.

Track the satellite on the map from your city or location and see movement details for azimuth, elevation, latitude, longitude, range, height, and movement on the map or in text.







IsCatalogInMostPopularTable: catalog: 48699, numindb: 2
Update: records affected: 1



GetName: 48699 FALCON 9 DEB

Hit Count: updated at: Mon, 21 Jun 2021 03:40:28 GMT